Wind_Speed
19 19 18 18 18 18 16 15 15 15 16 17 18 18 18 17 16 16 16 16 16 16 16 16 16 15 15 15 14 13 13 12 12 12 12 11 11 11 11 11 11 10 10 10 10 10 11 11 12 12 12 12 12 12 12 12 12 12 12 12 12 12 11 12 13 13 13 13 14 13 12 12 13 13 13 13 12 12 12 12 13 13 14 14 14
19 19 19 19 20 19 18 17 16 15 16 17 18 19 19 19 18 18 17 16 16 15 15 15 15 15 15 15 15 14 13 13 13 13 13 12 12 11 11 11 11 11 10 10 10 10 10 10 11 11 11 12 12 11 12 12 12 12 13 13 12 12 13 13 14 15 14 14 15 15 15 14 14 14 14 14 14 14 15 14 14 13 13 14 15
17 18 19 20 21 21 20 19 17 16 16 17 17 18 19 19 19 19 18 16 15 15 15 15 15 15 15 15 15 15 14 14 13 13 13 13 13 13 12 12 12 11 11 11 10 10 10 10 10 11 11 11 11 11 11 12 12 12 13 13 13 12 13 13 14 15 15 15 15 16 17 16 16 17 16 16 15 15 15 15 13 12 13 14 15
19 19 20 21 23 24 23 22 20 18 18 17 17 17 16 17 18 19 18 17 16 16 16 16 15 15 15 15 14 14 14 14 14 14 14 14 14 14 14 13 13 13 12 12 12 11 10 10 10 10 10 11 11 11 12 12 12 12 13 13 13 13 13 14 14 15 16 16 16 16 17 17 17 18 17 16 16 15 15 14 13 12 13 14 13
21 21 21 22 23 24 25 24 22 20 19 17 16 15 14 15 15 16 17 17 17 16 16 17 17 16 15 15 14 13 14 14 14 14 14 14 14 14 14 14 14 14 14 13 13 12 11 11 10 10 10 11 11 11 12 12 12 13 13 13 13 13 13 14 14 15 15 16 15 15 15 16 17 17 17 16 15 15 14 13 13 13 13 12 11
23 22 22 23 24 23 24 24 23 22 20 18 17 16 15 15 15 15 15 15 16 16 17 17 17 17 16 15 14 14 14 14 14 14 14 14 15 15 14 14 14 14 14 14 14 13 12 12 11 11 11 11 11 11 11 11 12 13 13 13 14 14 14 15 15 15 15 15 15 15 15 15 16 16 15 14 14 14 13 12 13 13 11 10 10
26 25 25 26 26 23 22 22 22 22 21 20 19 18 18 17 17 17 16 16 15 15 15 16 17 17 16 16 15 15 14 14 14 14 14 14 14 14 13 13 13 13 14 14 14 14 14 13 13 12 12 11 11 11 11 11 11 12 12 13 13 14 15 15 16 16 16 16 16 15 15 14 15 15 14 13 13 14 12 11 12 11 10 10 11
28 27 28 28 27 24 23 21 20 20 21 20 20 20 20 19 19 19 18 17 17 16 15 15 16 16 16 16 16 15 15 15 15 15 15 14 14 13 13 12 12 13 13 14 14 15 15 14 14 14 13 12 12 12 12 12 12 12 12 12 13 14 14 15 16 16 17 17 17 17 16 16 16 16 15 14 14 13 12 11 12 12 10 11 12
28 27 28 29 28 25 24 22 20 20 21 21 22 22 21 21 21 21 20 19 18 18 17 16 16 16 17 17 16 16 16 15 15 15 16 15 15 14 13 13 13 13 13 13 14 14 15 15 15 15 14 14 14 14 14 14 14 14 13 13 13 14 14 14 15 16 16 17 17 17 16 17 17 16 16 15 14 13 12 12 13 13 13 14 15
28 28 29 30 29 27 27 26 24 23 24 24 24 23 23 23 23 23 23 21 20 19 19 18 17 17 18 19 18 17 16 16 16 16 16 16 16 15 14 13 13 13 13 13 13 14 14 15 15 16 15 15 15 16 16 16 16 16 15 15 15 15 15 16 16 16 16 16 16 16 16 17 16 15 15 15 14 13 13 13 15 15 16 17 18
28 29 28 28 29 28 28 29 28 27 27 26 26 26 26 25 25 24 24 23 21 20 19 19 19 18 18 19 20 19 18 18 17 17 17 17 16 15 14 14 13 13 13 13 13 13 14 14 15 16 16 17 17 17 17 18 18 18 18 18 18 18 17 18 17 17 16 16 16 16 16 17 16 15 15 15 15 15 15 16 16 17 18 18 19
26 28 27 27 28 27 27 28 29 28 28 27 27 28 28 28 26 25 24 24 23 21 21 21 21 20 19 19 20 21 21 21 19 18 18 18 18 17 15 15 14 14 14 14 14 14 14 14 15 15 16 17 18 18 19 19 19 20 20 20 20 20 20 20 20 19 18 18 18 18 18 18 18 17 17 17 17 17 18 18 18 18 18 18 19
19 23 26 26 26 26 26 27 28 28 28 28 28 28 28 29 28 26 25 25 24 23 23 23 23 23 21 20 20 21 22 23 23 22 21 20 20 19 18 17 16 16 15 15 15 15 15 15 15 15 16 16 17 17 18 19 20 20 20 21 21 22 22 22 22 22 21 20 20 21 21 20 20 21 19 18 19 20 20 20 19 18 18 18 19
16 17 20 22 22 21 21 23 25 27 27 28 28 28 29 30 29 27 26 26 24 24 24 25 25 24 22 22 22 22 23 23 23 24 23 23 22 21 20 19 18 18 18 17 17 17 16 16 16 16 16 16 16 17 18 18 19 19 19 20 20 21 22 22 23 24 24 23 22 23 24 23 23 24 23 22 22 23 22 21 20 18 18 18 18
22 18 18 19 18 16 16 18 21 24 26 27 26 26 28 30 29 28 27 26 24 24 25 26 26 25 24 23 24 25 25 24 24 24 24 24 24 22 21 20 19 19 19 19 19 18 19 18 18 18 18 18 18 18 18 18 19 18 18 19 20 20 20 20 22 23 23 23 23 24 25 25 25 25 25 24 23 23 23 21 20 19 19 18 18
27 24 23 22 21 19 17 18 19 20 22 25 25 24 25 26 27 27 26 25 25 26 26 27 27 26 25 25 25 26 27 27 26 26 26 26 26 25 24 23 22 21 21 20 20 20 20 19 20 20 20 20 20 20 20 20 19 19 19 19 20 20 19 20 21 22 22 23 23 23 24 25 25 25 25 25 23 23 22 20 20 21 21 19 20
29 28 27 27 26 24 22 21 21 20 19 21 23 25 25 25 25 24 24 24 25 26 27 28 29 28 28 29 29 28 28 28 29 29 29 29 28 27 26 25 24 23 23 23 22 22 22 21 21 21 20 21 22 22 22 22 21 20 20 20 20 19 18 20 22 23 23 23 23 23 23 24 25 25 26 26 25 24 22 20 21 24 22 20 21
31 30 30 30 29 28 26 24 24 23 22 20 21 23 25 25 25 25 25 25 25 26 27 28 30 30 31 31 32 32 31 30 30 30 31 32 31 30 29 27 25 24 24 24 24 24 24 24 23 22 21 22 23 23 23 23 21 20 21 22 22 19 18 21 24 25 25 24 23 23 23 23 24 24 25 26 26 26 24 22 24 26 24 22 23
33 32 31 31 31 31 30 27 26 26 26 23 22 21 22 23 25 27 28 28 28 28 28 28 29 30 31 32 34 34 34 34 32 31 31 31 32 32 30 28 26 25 25 26 26 26 25 25 25 25 24 24 25 25 26 25 23 22 23 23 21 20 21 25 26 25 25 24 24 24 23 23 24 24 25 26 26 27 26 26 27 29 28 27 27
35 35 34 33 33 32 32 31 30 29 29 27 25 24 23 22 24 26 28 30 31 31 30 30 29 30 31 32 34 35 36 36 35 33 32 32 33 33 33 31 29 29 28 28 28 27 27 27 27 27 27 28 29 29 29 28 27 25 25 24 22 22 25 28 27 26 26 25 25 24 24 24 25 25 25 26 27 28 29 29 30 32 32 31 31
36 36 36 36 35 35 35 35 33 32 31 30 29 28 27 26 25 26 27 28 31 32 33 33 32 31 31 32 32 33 34 35 36 36 36 35 34 34 34 33 32 32 31 30 29 28 28 29 29 30 30 30 31 32 32 31 30 29 27 26 25 26 27 28 28 28 28 27 26 26 25 26 26 26 26 27 28 30 32 32 33 34 35 34 34
36 37 37 38 37 37 37 37 36 35 34 33 33 33 32 31 30 29 29 28 28 29 31 33 33 32 31 31 31 31 31 33 35 37 37 35 35 34 34 33 32 32 32 31 30 29 30 30 31 32 32 32 32 32 33 33 32 31 29 28 28 28 28 28 28 28 29 29 28 28 27 27 28 28 28 28 30 32 33 34 35 36 37 37 37
37 38 38 39 39 39 38 38 38 37 36 36 36 36 35 34 34 33 33 32 31 30 30 31 32 32 31 31 30 30 30 31 33 35 35 35 36 36 35 35 34 34 32 32 31 31 31 31 32 33 33 33 33 33 33 33 32 31 30 29 29 29 29 28 28 28 28 28 28 28 28 29 30 30 31 31 32 33 33 34 35 37 39 39 40
39 39 39 40 40 40 40 40 40 39 39 38 38 38 38 38 37 36 36 35 35 33 33 32 32 32 32 31 30 31 32 33 33 34 34 35 36 36 36 36 36 34 32 32 32 32 32 32 32 32 32 32 32 32 32 32 31 30 30 30 30 30 30 29 29 29 28 27 27 27 28 29 30 31 32 34 34 33 33 33 35 38 39 40 40
41 41 41 41 41 42 42 41 42 42 42 41 41 41 41 40 40 39 39 38 38 37 36 36 35 35 34 33 32 32 33 35 36 36 34 34 34 35 36 37 36 35 34 32 32 31 32 33 32 31 30 29 29 29 29 29 30 30 30 31 31 31 30 30 30 30 28 27 27 27 28 30 31 32 33 35 35 34 34 35 36 37 38 39 39
43 43 43 42 43 44 43 43 43 44 44 44 44 44 43 43 42 42 42 41 41 41 40 40 39 38 38 37 36 35 34 34 35 35 35 34 34 36 38 38 38 36 35 34 33 32 32 32 32 31 29 27 27 27 28 29 29 30 30 31 31 31 31 31 30 30 29 29 29 28 28 30 32 33 34 35 35 36 37 38 38 37 37 38 37
44 44 43 43 43 44 45 44 44 45 46 46 47 46 45 45 45 45 45 44 44 44 44 43 43 42 41 41 40 40 38 36 35 35 35 35 35 37 39 40 41 41 39 36 35 34 33 32 33 33 31 29 28 28 29 29 30 30 31 32 32 33 33 33 32 31 30 30 30 28 28 29 31 33 35 37 37 38 40 41 40 39 38 37 35
44 44 43 43 43 43 44 45 45 46 47 48 48 48 47 47 47 47 47 47 46 46 46 46 45 44 44 43 43 43 42 41 40 38 38 38 37 38 38 38 39 42 43 39 37 35 35 34 35 35 34 31 30 30 30 31 31 31 32 32 33 34 35 35 35 34 33 32 30 29 28 29 30 32 35 37 39 40 42 43 42 40 39 38 35
46 46 45 45 44 43 44 45 46 46 47 47 48 48 49 49 49 49 49 49 49 48 48 48 48 47 46 46 45 45 45 44 43 43 43 42 41 41 41 38 37 38 40 39 37 35 34 34 35 35 35 33 32 32 32 33 32 32 32 33 33 34 35 35 36 36 37 36 33 31 31 30 30 31 34 37 39 42 43 43 42 41 40 39 36
48 47 47 46 46 45 45 46 47 47 46 46 46 47 49 49 50 50 50 51 51 50 50 50 50 50 49 48 48 48 48 47 46 45 45 45 45 44 43 42 40 39 39 39 38 37 35 34 33 33 33 33 33 33 33 33 33 32 33 33 33 34 34 34 34 35 37 37 35 34 34 34 33 33 35 36 39 41 42 42 41 41 41 40 38
47 47 47 47 46 45 45 45 46 47 46 46 46 47 48 49 49 49 50 51 51 51 51 52 52 52 52 52 51 50 50 50 49 49 47 47 47 47 46 45 44 42 42 43 42 41 40 38 37 37 36 35 35 34 34 34 33 33 33 32 32 32 33 33 34 35 35 35 35 35 36 37 37 37 36 37 38 39 40 40 41 41 42 41 39
46 46 46 46 45 45 44 44 45 46 46 47 47 47 47 48 48 49 49 50 51 51 52 52 53 53 54 54 54 53 53 53 53 52 51 50 49 49 49 48 47 46 45 45 46 46 45 44 43 42 41 39 38 37 37 37 36 35 34 33 32 32 32 32 34 34 34 34 34 35 36 38 39 39 39 39 39 38 38 39 40 41 41 41 40
45 45 45 45 44 44 44 43 43 44 46 47 47 47 47 47 48 48 49 49 50 50 51 52 52 53 54 55 55 56 56 56 55 55 55 54 53 52 52 51 50 49 48 48 48 48 48 47 46 46 45 43 41 41 40 39 38 38 37 36 34 33 32 33 33 34 34 35 35 35 35 37 38 39 40 40 41 40 40 39 39 40 39 39 39
45 45 44 44 44 44 44 44 44 44 45 47 47 47 47 46 47 47 48 48 49 49 50 51 52 52 53 55 56 56 57 57 57 57 57 56 55 55 55 55 54 53 52 51 50 50 50 50 49 49 49 47 46 45 44 43 42 41 41 39 38 36 36 35 35 35 35 35 36 37 37 37 38 38 38 39 41 42 42 41 41 40 39 39 39
45 45 45 45 45 45 45 45 45 45 46 46 47 47 47 47 46 46 47 48 49 49 50 51 52 52 52 53 55 56 57 58 58 58 58 58 58 58 58 58 58 57 56 55 54 53 53 53 52 52 52 52 51 50 49 48 47 46 45 44 43 42 41 40 39 38 37 37 38 38 38 38 38 39 40 40 40 41 42 42 42 42 40 40 39
46 46 47 47 48 47 47 47 47 47 47 48 48 48 48 48 48 48 48 48 49 49 50 51 52 53 53 53 54 54 56 57 58 58 58 59 60 60 60 60 60 60 59 59 58 56 56 55 55 54 54 55 55 54 53 53 52 51 50 50 49 47 45 44 43 43 42 41 40 40 40 39 39 41 42 42 41 41 41 43 43 42 41 40 40
45 46 47 48 48 49 49 49 49 49 49 49 50 50 51 51 50 50 50 50 50 50 51 52 52 53 54 54 54 55 55 56 57 58 58 59 60 61 62 62 61 61 61 61 61 60 59 58 58 57 56 56 57 57 57 57 56 55 54 54 54 52 50 48 47 46 46 46 45 44 43 42 40 41 43 43 42 42 42 43 44 43 41 40 41
43 44 45 46 48 48 49 50 50 50 50 50 51 51 52 52 53 53 53 53 53 53 53 53 54 54 55 55 56 56 56 57 57 57 58 59 60 62 63 63 63 62 63 63 63 63 62 62 61 60 59 58 58 58 58 58 58 58 58 57 57 56 55 54 52 50 49 49 50 49 49 46 43 43 44 43 42 42 43 44 45 43 41 40 40
43 44 45 46 47 48 48 49 50 51 51 51 51 51 52 52 53 53 53 54 55 55 55 55 56 56 57 57 58 58 58 58 58 58 59 59 61 62 63 64 64 63 64 64 64 64 64 64 64 63 62 61 60 60 59 59 59 60 60 60 59 59 59 58 57 55 53 52 52 52 53 52 49 48 47 44 42 43 44 46 46 45 43 42 41
46 46 47 47 47 48 48 49 50 50 51 51 51 51 52 52 52 52 52 53 54 55 56 56 57 58 58 59 60 60 59 59 59 60 60 61 62 63 64 65 65 65 65 65 65 65 66 66 66 65 65 64 63 63 62 62 61 60 61 61 61 61 60 60 59 59 57 55 54 54 55 55 53 52 51 48 45 44 45 47 48 49 47 46 46
49 49 50 50 50 50 50 50 51 51 51 52 52 52 52 53 53 53 53 53 53 54 55 56 57 57 58 59 60 61 61 61 61 61 62 62 63 64 65 67 67 67 67 66 66 66 66 67 66 66 66 66 66 66 65 65 63 62 62 62 62 62 61 61 60 59 58 57 57 56 57 56 55 54 54 52 49 47 47 48 51 53 53 52 51
50 50 51 51 51 52 52 52 53 53 53 53 54 54 54 54 55 55 55 54 54 54 55 55 56 56 57 58 59 61 61 62 62 63 63 63 63 64 65 68 69 69 69 68 67 67 67 67 67 67 67 67 67 67 67 67 66 65 65 64 64 63 63 62 61 60 59 59 58 58 58 58 58 57 57 56 54 52 50 50 52 55 56 56 56
50 50 50 51 51 52 52 53 53 53 54 54 55 55 55 56 56 56 56 56 56 56 56 56 56 57 57 58 59 60 61 62 62 63 63 63 63 64 65 67 69 70 71 71 70 69 68 68 68 68 68 68 68 68 68 68 68 68 68 67 66 66 65 64 63 62 61 61 60 60 59 59 59 59 59 58 57 56 54 53 53 56 58 59 60
50 50 51 51 52 52 53 53 54 54 55 55 56 56 57 58 58 58 58 58 58 58 58 58 58 58 59 59 60 61 61 62 63 63 63 63 64 64 65 66 67 69 71 72 72 71 70 70 69 69 70 70 70 69 69 69 69 69 69 69 68 68 67 67 66 65 64 63 62 62 61 61 60 60 60 60 60 60 58 57 56 57 58 60 61
51 52 53 53 54 54 55 56 56 57 57 58 58 59 59 60 60 61 61 61 61 61 61 61 61 61 61 61 61 62 63 63 64 64 64 64 64 65 65 66 67 69 70 71 72 72 72 71 71 71 71 71 71 71 70 70 70 70 70 70 70 70 70 69 68 67 67 66 64 64 63 63 62 62 62 62 62 62 61 60 60 59 59 60 61
52 53 54 55 55 56 57 57 58 58 59 59 60 60 61 62 62 63 63 64 64 64 64 64 64 64 64 64 64 64 64 65 65 65 66 66 65 65 66 67 68 69 70 71 72 72 72 72 72 72 72 72 72 72 72 72 72 72 71 71 71 71 71 71 70 70 69 69 67 66 65 65 65 64 64 63 63 63 63 62 62 62 61 61 61
51 52 53 54 54 55 56 57 57 58 59 60 60 61 61 62 63 64 65 65 66 66 67 67 67 67 67 67 67 67 67 67 67 67 67 67 67 67 67 67 68 69 70 71 72 72 73 73 73 73 72 72 73 73 74 74 74 74 73 73 72 72 72 72 72 72 71 71 70 69 68 67 67 67 67 66 65 64 64 63 63 63 63 62 61
49 50 51 51 52 53 54 55 55 56 57 58 59 59 60 61 62 63 64 65 66 66 67 68 68 69 69 69 70 70 70 70 70 70 70 70 69 69 69 68 68 68 69 70 71 72 73 74 74 74 73 73 73 74 75 75 75 75 75 75 74 74 73 73 73 73 73 73 72 71 70 69 69 69 69 69 68 66 65 64 64 63 63 63 62
47 48 49 50 50 51 52 53 54 55 56 56 57 58 58 59 60 61 62 62 63 64 65 66 66 67 68 69 70 70 71 71 71 72 72 71 71 71 70 70 70 70 69 70 71 72 73 73 74 74 74 74 75 75 76 76 76 77 77 77 76 76 76 75 74 74 74 74 74 74 73 72 71 70 71 71 71 70 68 66 65 64 64 64 64
47 47 48 49 50 51 52 53 53 54 55 56 57 57 58 58 59 60 60 61 61 61 62 62 63 64 65 65 66 67 68 69 70 71 71 71 72 72 72 72 71 71 70 70 71 71 72 72 72 72 73 74 75 76 76 77 77 77 78 78 78 78 78 77 77 76 76 76 75 75 75 74 73 73 72 72 73 72 71 70 68 67 66 66 66
45 46 47 48 49 50 51 52 53 54 55 56 56 57 58 58 59 60 60 61 61 61 61 61 61 61 62 62 63 64 64 64 65 66 67 68 69 70 70 71 71 71 71 71 71 71 72 72 72 72 72 73 74 75 76 76 77 78 78 79 80 80 80 79 79 78 78 78 77 77 77 77 76 75 74 74 74 74 74 73 72 70 69 68 68
Wind_Direction
217 217 214 211 213 217 219 216 213 214 218 220 219 219 219 219 219 219 216 212 208 204 202 201 199 196 196 198 200 202 202 200 201 202 201 200 198 194 191 187 185 186 186 185 185 186 189 190 191 194 197 198 199 198 198 203 207 208 212 218 222 224 225 226 228 232 232 234 242 250 252 253 256 260 267 275 281 284 287 292 297 302 306 306 308
224 223 224 220 215 215 217 217 214 213 217 222 223 222 222 222 222 224 223 221 220 216 212 209 207 205 203 202 203 205 208 208 208 208 206 206 207 206 205 204 201 199 196 195 193 193 194 194 196 198 199 201 203 203 203 206 210 212 216 222 227 228 229 232 235 238 240 238 242 251 257 261 265 269 273 278 282 284 288 294 299 303 303 301 304
221 223 226 228 226 220 216 215 214 212 213 219 224 224 224 225 225 227 228 228 229 229 227 223 219 216 213 211 209 208 209 211 213 214 213 211 212 213 213 213 213 213 212 209 208 205 203 202 202 203 205 207 208 208 209 211 213 217 221 226 232 235 237 240 242 246 250 249 248 253 261 267 270 273 276 279 281 283 286 291 296 299 296 295 300
216 219 219 222 229 229 222 216 212 211 210 213 220 225 227 228 229 231 233 233 235 237 238 238 235 231 227 223 220 216 214 212 212 216 218 217 217 217 218 218 218 220 221 220 220 219 216 214 213 212 212 214 216 216 216 216 218 221 224 228 232 236 241 244 247 250 254 256 256 257 261 265 267 271 276 280 282 284 287 291 293 294 292 294 299
223 223 217 213 221 228 229 223 214 210 210 209 213 220 226 231 234 236 237 238 239 240 243 245 246 245 243 239 235 230 225 220 217 216 219 220 221 221 222 221 221 223 225 226 227 228 227 225 225 225 224 222 223 224 225 225 225 227 229 231 233 236 241 245 249 252 256 260 262 263 264 267 270 273 279 283 285 286 289 291 292 291 292 296 300
226 227 221 213 211 217 228 229 221 215 212 208 209 211 216 222 226 230 235 237 239 241 243 246 249 252 253 252 250 246 241 236 230 225 222 221 222 222 224 225 225 225 228 231 233 234 234 233 233 233 233 233 232 233 233 233 234 236 237 238 239 241 243 245 249 252 255 260 264 266 268 271 275 279 283 285 286 289 291 291 290 289 291 294 296
218 223 224 219 212 212 219 223 223 223 219 213 211 211 212 216 218 221 225 228 231 234 239 243 247 251 254 256 256 255 254 251 246 239 233 229 227 226 226 227 229 230 231 234 238 240 240 240 240 241 241 241 241 242 244 243 243 245 246 247 247 248 249 250 251 252 254 257 261 265 267 270 273 278 284 285 284 288 292 291 288 287 286 289 292
216 219 221 219 215 214 215 213 217 226 227 223 219 216 215 216 218 219 221 224 226 227 230 235 240 243 246 249 250 251 252 252 252 249 245 241 239 236 234 231 230 230 232 233 236 240 242 243 244 246 248 249 250 250 252 253 253 254 256 256 256 255 255 256 256 256 257 258 261 264 267 269 270 275 281 284 283 285 290 288 286 286 288 289 290
223 220 217 216 216 216 217 217 221 228 231 232 229 225 220 219 221 221 220 221 225 226 226 227 232 237 238 238 240 242 243 244 245 246 247 247 246 244 240 235 231 228 227 229 232 234 237 240 242 244 247 249 252 254 256 258 260 261 262 263 263 264 265 264 263 262 262 263 265 267 268 269 271 274 278 281 282 284 285 282 280 283 288 290 291
226 223 218 218 221 222 222 224 226 228 231 235 234 229 225 223 224 225 224 223 224 227 229 227 227 232 236 235 233 233 237 240 240 240 242 245 247 246 243 240 237 232 229 228 229 230 232 233 235 236 238 240 244 249 253 257 261 263 265 266 266 266 267 268 267 267 267 267 268 270 271 271 273 275 277 278 279 281 280 277 277 280 284 288 290
226 227 224 223 224 225 224 223 222 223 227 233 234 231 228 225 225 226 226 227 227 230 234 236 232 231 233 235 234 232 232 234 236 238 239 240 242 243 242 241 239 238 235 233 232 232 232 232 232 231 231 232 234 237 242 247 251 256 259 261 264 266 267 268 269 269 270 270 272 273 272 272 273 274 273 273 274 276 276 276 276 278 281 284 286
227 229 228 226 225 226 228 226 224 223 225 230 236 236 233 230 228 226 225 226 228 228 232 237 238 235 231 231 233 234 233 231 231 232 235 236 237 237 236 235 234 235 235 235 235 235 235 235 234 234 233 232 233 234 237 240 243 246 249 252 256 259 262 265 267 268 269 270 271 271 270 270 271 270 269 270 272 272 273 274 276 278 280 281 282
228 229 229 228 229 231 234 233 230 228 227 231 237 239 237 233 231 228 226 226 227 227 229 232 235 236 234 231 230 231 234 235 233 231 230 231 233 234 234 233 232 233 233 235 236 237 238 239 240 239 239 239 239 239 240 242 244 246 248 249 251 254 256 258 261 264 265 266 268 270 269 269 270 270 268 269 271 272 272 273 275 277 277 278 280
232 227 225 226 227 229 232 234 234 234 233 234 238 241 242 239 236 232 230 229 228 228 230 232 233 234 234 235 234 232 232 236 238 238 236 233 232 234 236 237 237 236 236 235 237 237 239 241 242 244 245 245 245 246 247 248 250 251 252 253 254 255 256 258 259 260 261 262 265 268 269 269 271 272 272 271 272 273 273 275 276 275 273 273 275
244 236 232 234 237 236 238 242 242 240 238 237 238 242 245 244 241 237 234 231 229 229 231 234 235 234 232 234 239 241 239 237 238 240 240 238 236 234 235 237 238 240 240 240 240 241 242 244 246 247 248 249 250 251 252 253 255 255 256 256 257 258 259 260 261 261 261 260 260 263 266 268 270 273 274 274 273 273 274 275 276 272 269 269 270
255 251 251 256 261 262 262 261 255 246 239 235 234 237 242 242 240 238 236 233 232 233 234 233 234 236 236 234 236 241 245 244 241 240 240 239 238 236 235 235 236 238 240 242 243 243 244 246 248 251 254 255 257 258 258 260 261 261 260 259 259 259 259 260 261 261 261 260 258 258 260 263 266 269 271 272 272 272 273 274 273 270 267 267 267
257 256 256 259 263 264 265 265 262 256 248 240 235 235 239 240 238 237 237 237 238 239 238 236 237 240 242 239 236 237 241 245 245 244 243 242 240 238 237 237 237 238 240 243 244 245 245 244 245 248 252 256 259 261 263 265 266 267 267 266 265 264 262 262 264 263 260 259 258 257 257 259 262 264 266 267 268 268 269 269 268 267 266 264 263
255 255 256 258 260 261 262 263 264 262 258 253 246 241 242 243 243 242 242 242 242 242 242 240 241 242 243 242 240 238 240 243 245 247 248 248 247 244 241 240 240 241 242 244 246 248 249 250 249 248 248 250 253 257 259 261 262 264 268 270 273 274 270 266 265 265 266 266 265 263 262 261 262 264 265 266 266 266 265 263 263 265 265 263 261
254 255 256 257 259 261 262 261 262 262 260 259 258 254 248 246 247 247 247 247 246 246 246 245 244 245 245 244 242 241 241 243 244 247 250 253 253 252 248 245 243 243 243 245 247 249 251 254 256 256 255 253 253 253 254 256 255 255 257 261 267 272 269 267 268 270 273 276 277 275 273 269 266 266 266 266 267 267 265 262 261 262 263 263 262
254 254 254 255 256 259 261 260 260 260 258 258 261 263 260 256 253 252 252 251 250 248 248 249 248 248 247 246 244 242 242 243 245 246 247 250 252 254 253 250 247 245 243 243 245 248 250 252 254 256 257 257 258 258 257 257 256 255 256 259 262 262 262 266 272 275 277 280 281 281 280 276 273 270 267 266 266 267 266 264 263 263 263 263 263
255 255 254 253 252 253 255 257 257 258 258 257 259 261 263 263 261 260 259 257 255 252 250 249 250 249 246 245 246 245 243 243 245 246 246 247 251 255 256 255 253 252 251 249 247 248 250 251 251 252 253 255 258 260 262 263 263 263 264 265 265 262 262 266 272 275 278 279 280 279 278 277 275 272 268 265 264 265 266 266 266 267 268 267 266
254 255 255 255 254 253 253 253 254 255 256 257 258 259 261 262 263 263 263 262 261 258 254 251 251 250 247 245 246 246 245 244 246 247 248 248 251 253 254 253 252 252 253 253 253 252 252 252 251 250 251 253 256 258 262 264 267 269 270 270 269 267 267 268 268 270 272 274 275 275 275 275 273 271 268 265 263 262 263 265 267 269 271 271 271
254 255 256 257 258 257 256 256 255 255 255 254 255 256 257 258 259 261 263 263 263 263 260 255 252 249 247 246 245 246 246 246 247 250 250 250 252 253 253 252 251 250 249 250 252 252 252 253 253 252 252 254 255 256 259 262 265 268 269 271 272 272 271 270 269 268 268 269 270 272 272 272 271 269 268 265 261 260 261 264 266 268 269 271 273
255 255 256 257 258 259 259 259 259 259 257 256 255 255 255 255 256 257 259 261 263 264 265 263 260 256 252 249 247 247 247 247 249 252 252 250 251 253 254 255 255 255 254 252 251 252 253 253 254 255 257 258 259 260 261 263 264 264 264 265 267 268 269 270 270 268 267 267 268 268 268 268 268 268 267 265 263 261 261 261 263 264 266 269 272
255 255 255 256 257 258 258 259 259 260 260 259 259 258 258 257 256 256 256 258 259 260 261 263 263 262 260 257 254 252 250 249 251 253 252 250 251 254 256 258 259 259 259 256 254 254 255 254 254 255 257 260 262 263 263 264 264 264 264 264 263 264 265 266 267 267 266 265 265 264 264 264 265 265 265 265 265 264 262 260 259 261 264 268 271
255 256 255 255 256 257 257 257 257 258 259 259 260 260 260 260 260 259 258 258 258 258 259 259 259 259 259 259 258 257 254 252 252 254 253 251 251 253 257 259 260 261 260 257 255 255 256 255 253 253 253 255 257 258 258 260 262 264 265 264 264 264 264 265 265 265 264 262 261 260 261 262 263 264 265 266 265 265 264 263 262 262 264 266 269
256 256 256 256 256 257 257 257 256 256 257 257 258 259 260 261 262 262 262 261 260 259 259 259 258 257 257 257 257 258 257 256 256 256 256 255 254 255 257 259 259 258 256 254 253 253 254 253 252 250 248 248 250 252 254 256 259 261 263 264 265 266 267 268 269 268 266 263 261 259 259 260 261 263 264 265 264 264 265 266 266 267 267 268 270
256 256 256 256 256 257 258 258 257 256 256 256 257 258 259 259 260 261 262 263 262 262 262 262 261 260 259 258 258 258 258 258 258 259 260 260 260 261 263 262 259 256 255 254 253 253 253 253 253 251 248 247 249 251 253 256 258 260 262 265 267 269 271 273 275 275 273 271 268 265 262 261 261 261 263 264 264 264 265 268 270 271 271 272 273
256 257 257 257 257 258 259 259 259 258 257 257 257 258 257 257 257 257 259 260 262 262 263 263 263 263 262 261 261 261 260 260 260 260 261 261 262 262 264 265 262 259 257 255 254 255 255 255 253 249 246 247 250 252 254 256 257 259 261 263 266 269 272 274 276 276 276 276 274 272 269 266 263 261 261 262 262 263 265 269 272 273 274 274 274
255 256 257 257 257 258 258 259 260 261 260 259 258 257 257 256 256 256 256 257 258 259 260 262 263 264 264 264 264 264 263 263 262 262 261 261 262 262 263 263 263 262 261 259 257 256 256 255 252 247 245 246 250 253 256 258 258 258 260 262 264 267 270 272 274 275 276 277 278 276 273 269 265 262 261 260 261 262 265 269 271 273 274 274 275
255 255 256 256 256 256 256 257 259 260 259 258 257 257 257 257 256 256 255 255 255 256 256 257 259 261 262 263 264 264 265 265 264 263 262 262 262 262 262 261 260 260 260 260 259 258 256 255 253 252 252 253 253 253 257 259 260 260 260 261 264 267 269 272 273 275 276 277 278 276 273 270 267 265 263 262 262 262 265 268 271 272 273 274 275
254 254 255 255 256 256 255 255 256 257 258 257 257 256 256 256 256 256 255 255 255 255 254 254 255 256 258 259 260 261 262 263 264 264 263 263 262 262 263 262 261 259 258 258 259 260 259 258 257 256 257 257 256 256 258 261 262 262 262 263 265 267 269 270 272 274 277 278 277 275 272 270 269 268 267 266 266 266 267 269 272 274 275 276 276
253 254 254 255 255 255 254 254 254 255 256 257 257 257 256 256 256 255 255 255 255 255 255 254 253 253 254 256 257 258 259 260 261 262 263 263 263 263 263 262 262 261 259 258 258 258 259 260 260 260 260 259 258 259 260 262 263 264 265 265 266 268 270 270 271 273 275 277 277 276 274 272 271 271 269 268 267 267 268 269 271 273 275 276 276
254 255 255 255 255 255 254 254 253 253 255 256 258 258 258 257 257 257 257 255 254 254 254 254 254 253 253 253 254 255 256 257 258 259 260 261 261 261 262 262 261 260 259 258 257 256 257 257 258 259 259 260 259 259 259 260 261 261 262 264 266 269 271 272 273 274 274 275 276 276 275 274 273 272 271 268 267 266 266 267 269 271 273 274 276
254 255 255 256 256 255 255 254 254 254 254 256 257 258 258 258 258 258 259 259 258 256 255 254 254 253 253 252 252 253 254 255 256 257 258 258 258 258 259 259 260 260 259 258 257 256 256 255 255 255 256 257 257 258 258 258 259 259 259 260 262 265 268 270 272 272 272 271 272 273 273 273 273 271 270 269 268 267 266 266 267 269 271 273 274
254 255 255 256 256 256 256 255 255 255 254 255 256 257 258 258 258 258 258 259 259 260 259 258 256 255 254 253 253 253 253 253 254 255 256 257 257 257 256 257 258 259 259 259 258 257 256 256 255 254 254 254 255 255 256 257 258 258 259 260 261 262 264 266 268 270 270 270 270 270 270 270 269 269 269 268 269 269 268 266 265 265 267 269 270
256 256 256 256 256 257 257 257 256 256 256 256 256 256 257 257 257 258 257 257 258 258 260 260 260 259 258 256 255 254 253 253 253 253 254 255 256 256 256 256 256 256 257 258 258 258 257 257 256 256 255 255 254 254 255 256 257 258 259 259 260 261 262 263 264 266 268 268 268 269 270 270 269 269 268 268 268 268 267 265 263 261 262 263 264
258 257 257 258 258 258 258 259 259 258 258 258 257 257 257 257 257 257 258 258 257 257 257 258 259 260 260 259 258 256 255 255 255 254 254 254 255 256 256 256 255 255 255 256 257 258 258 258 257 257 256 256 256 256 256 256 257 257 258 259 260 261 262 263 263 263 265 265 266 267 268 269 269 268 268 267 268 268 266 263 260 257 256 256 257
259 259 259 259 260 260 260 261 261 261 261 260 260 259 259 259 259 259 258 258 258 258 257 257 257 258 258 259 259 259 258 257 256 256 255 255 255 256 256 256 255 254 254 254 255 256 257 257 257 257 257 257 257 257 257 257 257 258 259 259 260 261 262 263 264 264 263 263 263 264 265 266 267 267 267 267 267 266 264 260 257 255 254 254 256
262 262 261 261 261 261 262 262 262 263 262 262 262 261 261 260 260 260 259 259 259 259 259 258 258 258 258 258 258 258 258 258 257 256 256 256 256 257 257 257 256 255 254 253 253 254 255 256 256 257 257 257 258 258 258 258 258 258 259 260 260 261 261 262 263 263 263 262 262 261 262 263 264 265 266 266 265 264 262 258 254 254 255 258 260
263 264 264 264 264 263 263 263 263 263 263 263 263 263 263 262 262 261 261 260 260 260 260 260 260 260 259 259 259 259 258 258 257 257 256 255 255 256 257 257 257 257 256 254 254 253 254 255 255 256 256 256 257 257 258 258 258 258 259 259 260 260 261 261 261 262 262 262 261 260 259 260 261 262 263 264 263 262 261 258 255 254 256 259 261
263 264 265 265 266 266 266 265 265 265 265 264 264 264 264 264 264 264 263 263 262 262 262 262 262 261 261 261 261 261 260 259 259 258 257 256 255 254 255 256 257 258 258 257 255 254 254 254 254 255 255 255 255 256 256 257 258 258 259 259 259 259 260 260 260 260 261 261 260 260 259 259 259 259 260 261 261 261 260 259 257 256 256 258 259
262 263 263 264 265 266 266 267 267 267 267 267 267 267 266 266 266 265 265 265 265 264 264 263 263 263 263 262 262 262 262 262 261 260 259 258 257 256 255 255 255 256 257 257 257 256 255 254 254 254 255 255 255 255 255 255 256 257 257 258 258 259 259 259 259 259 259 259 259 259 259 258 258 258 258 258 258 259 259 258 257 257 258 258 260
264 264 264 264 265 265 266 267 268 268 269 269 269 269 269 269 268 268 267 267 267 266 266 266 265 265 265 264 264 264 264 264 263 263 262 261 260 259 257 256 255 255 256 256 256 256 256 255 255 254 255 255 255 255 255 255 255 255 256 256 257 258 258 258 259 259 258 258 258 259 259 258 258 257 257 257 257 257 257 257 257 258 259 260 261
266 267 267 267 267 268 268 269 269 269 270 270 270 270 270 270 270 270 269 269 269 269 268 268 268 268 267 267 267 266 266 266 265 265 264 263 262 261 260 259 258 257 256 256 256 256 256 255 254 254 254 255 255 255 255 255 255 254 254 255 255 256 257 257 258 258 258 258 257 258 258 258 258 257 257 257 256 256 256 256 256 257 258 259 261
268 269 269 269 270 270 270 270 270 270 270 270 271 271 271 271 271 271 271 271 270 270 270 270 269 269 269 268 268 268 267 267 267 267 266 265 264 263 262 261 260 259 259 258 257 257 256 256 255 254 254 254 254 255 255 255 255 255 254 254 254 254 255 256 257 257 258 257 257 257 257 257 258 258 257 256 256 256 256 256 255 255 256 257 259
268 268 269 270 270 270 271 271 271 271 271 271 271 272 272 272 272 272 272 272 272 272 271 271 271 270 270 269 269 269 268 268 267 267 267 266 266 265 263 262 261 261 260 260 259 258 258 257 256 255 254 253 253 253 253 254 254 254 254 254 254 254 254 254 255 256 257 257 257 257 256 256 257 257 258 257 257 256 257 256 256 256 255 256 257
268 269 270 270 271 271 272 272 272 272 272 272 272 272 272 272 273 273 273 273 273 273 272 272 272 271 271 270 270 269 269 268 267 267 266 266 266 265 264 263 262 261 261 260 260 259 258 258 257 256 255 254 253 252 252 252 253 253 254 254 254 254 254 254 254 254 255 256 257 257 256 256 256 256 257 258 257 257 257 257 257 257 257 256 256
270 270 271 271 272 272 272 272 272 272 273 272 272 272 272 272 272 272 272 272 272 273 273 273 272 272 272 271 270 270 269 269 268 267 267 266 266 265 264 264 263 261 260 260 259 259 258 258 257 257 256 255 254 252 252 251 252 252 252 253 253 253 253 253 253 253 254 254 255 256 257 256 256 256 256 257 258 258 257 257 256 256 257 257 257
270 271 271 272 272 272 273 273 273 273 273 273 273 273 273 273 273 273 273 272 272 272 272 272 272 272 271 271 270 270 269 269 268 268 267 266 266 265 264 264 263 262 260 259 258 258 258 257 257 256 256 255 254 253 252 252 251 251 251 252 252 252 252 252 253 253 253 253 254 255 256 256 256 256 256 256 257 257 258 257 257 256 256 256 257
271 272 273 273 273 274 274 274 274 275 275 275 275 275 275 275 275 275 275 274 273 273 272 271 271 270 270 270 270 269 269 268 268 267 267 266 265 265 264 264 263 262 260 259 257 256 256 256 255 255 255 254 254 253 253 252 251 251 250 250 250 251 251 251 251 251 251 252 252 253 254 255 255 255 255 256 256 257 257 258 257 257 256 256 256
Height
5935 5936 5938 5939 5940 5941 5942 5944 5946 5947 5949 5949 5950 5951 5952 5953 5953 5954 5955 5956 5957 5958 5959 5959 5959 5959 5960 5960 5961 5961 5962 5962 5963 5963 5964 5965 5965 5966 5966 5966 5966 5967 5967 5967 5968 5968 5968 5969 5969 5969 5970 5971 5971 5972 5972 5973 5973 5974 5974 5974 5975 5975 5975 5976 5976 5976 5976 5976 5976 5976 5976 5976 5975 5975 5975 5975 5975 5975 5975 5974 5974 5974 5973 5972 5971
5935 5936 5937 5938 5939 5939 5940 5942 5944 5946 5947 5948 5949 5950 5951 5952 5953 5953 5955 5956 5957 5958 5959 5959 5959 5959 5959 5960 5960 5961 5961 5961 5962 5962 5963 5964 5964 5965 5965 5966 5966 5966 5966 5967 5967 5967 5968 5968 5968 5969 5969 5970 5970 5971 5971 5972 5972 5973 5973 5973 5974 5974 5974 5975 5975 5975 5975 5975 5975 5975 5975 5975 5974 5974 5974 5974 5974 5974 5974 5974 5973 5973 5972 5971 5970
5931 5933 5935 5937 5938 5938 5939 5939 5941 5943 5945 5946 5948 5949 5950 5951 5952 5953 5954 5955 5956 5957 5958 5959 5959 5959 5959 5959 5959 5960 5960 5960 5961 5961 5962 5963 5963 5964 5964 5965 5965 5966 5966 5966 5966 5967 5967 5967 5968 5968 5968 5969 5969 5970 5970 5971 5971 5972 5972 5972 5973 5973 5973 5974 5974 5974 5974 5974 5974 5974 5974 5974 5974 5973 5973 5973 5974 5973 5973 5973 5972 5972 5971 5970 5969
5928 5930 5931 5933 5936 5938 5938 5937 5938 5940 5942 5944 5946 5948 5950 5951 5952 5953 5953 5955 5956 5957 5958 5958 5959 5959 5959 5959 5959 5959 5959 5959 5960 5960 5961 5961 5962 5963 5963 5963 5964 5965 5965 5965 5966 5966 5967 5967 5967 5967 5968 5968 5968 5969 5969 5970 5970 5970 5971 5971 5971 5972 5972 5972 5972 5972 5973 5973 5973 5973 5973 5973 5972 5972 5972 5972 5972 5972 5972 5972 5971 5971 5970 5969 5968
5929 5929 5929 5930 5931 5935 5938 5937 5937 5938 5939 5941 5944 5946 5948 5950 5951 5952 5953 5954 5955 5956 5957 5958 5958 5959 5959 5960 5960 5959 5959 5959 5959 5959 5960 5960 5961 5961 5962 5962 5963 5963 5964 5964 5965 5966 5966 5967 5967 5967 5967 5968 5968 5968 5968 5969 5969 5969 5969 5970 5970 5970 5971 5971 5971 5971 5971 5971 5971 5972 5972 5971 5971 5971 5971 5971 5971 5971 5971 5971 5970 5969 5968 5968 5967
5927 5928 5929 5929 5928 5931 5936 5938 5937 5937 5938 5939 5941 5943 5945 5947 5948 5949 5950 5951 5952 5954 5955 5956 5957 5959 5960 5960 5960 5960 5960 5959 5959 5959 5959 5959 5960 5961 5961 5961 5962 5963 5963 5964 5964 5965 5966 5966 5967 5967 5967 5967 5968 5968 5968 5968 5968 5968 5968 5968 5969 5969 5969 5969 5969 5970 5970 5970 5970 5970 5970 5970 5970 5970 5970 5970 5970 5970 5970 5970 5969 5968 5967 5967 5966
5922 5924 5927 5929 5928 5929 5932 5936 5937 5937 5938 5938 5940 5941 5942 5943 5945 5946 5947 5948 5949 5951 5952 5954 5956 5957 5959 5959 5960 5960 5960 5960 5960 5960 5959 5959 5960 5960 5960 5961 5962 5962 5963 5963 5964 5964 5965 5966 5966 5967 5967 5968 5968 5968 5968 5967 5967 5967 5967 5967 5967 5967 5967 5967 5968 5968 5968 5968 5968 5968 5968 5969 5968 5968 5968 5969 5969 5969 5969 5969 5968 5967 5967 5967 5966
5919 5921 5924 5927 5929 5928 5929 5931 5933 5935 5937 5938 5938 5939 5940 5941 5942 5943 5944 5945 5946 5947 5949 5951 5953 5954 5956 5957 5958 5958 5958 5959 5959 5959 5960 5960 5960 5960 5960 5961 5961 5961 5962 5962 5963 5963 5964 5965 5965 5966 5967 5968 5968 5968 5968 5967 5967 5967 5967 5966 5966 5966 5966 5966 5966 5966 5966 5966 5966 5966 5966 5967 5967 5967 5967 5967 5967 5967 5968 5968 5967 5967 5966 5966 5965
5918 5919 5921 5924 5926 5927 5928 5929 5930 5932 5934 5936 5937 5938 5939 5940 5940 5940 5941 5942 5944 5945 5946 5948 5949 5951 5953 5954 5955 5956 5956 5956 5957 5958 5958 5959 5959 5960 5960 5960 5960 5960 5960 5960 5960 5961 5961 5962 5963 5964 5965 5966 5967 5967 5967 5967 5967 5967 5966 5966 5965 5965 5965 5965 5965 5965 5965 5965 5964 5964 5964 5965 5965 5965 5965 5965 5966 5966 5966 5967 5966 5966 5965 5965 5964
5916 5917 5919 5920 5922 5925 5926 5927 5927 5929 5931 5933 5934 5936 5937 5937 5938 5938 5939 5940 5942 5943 5944 5945 5946 5948 5949 5951 5952 5953 5954 5955 5955 5955 5956 5957 5958 5958 5958 5959 5959 5959 5959 5959 5959 5959 5959 5959 5960 5961 5962 5963 5963 5964 5965 5965 5966 5966 5966 5965 5965 5964 5964 5964 5964 5964 5964 5963 5963 5963 5963 5963 5962 5963 5963 5963 5964 5964 5964 5964 5964 5964 5964 5964 5963
5913 5914 5916 5918 5919 5921 5923 5925 5925 5926 5927 5929 5931 5932 5933 5934 5935 5936 5937 5938 5940 5942 5943 5943 5944 5944 5946 5948 5949 5950 5951 5952 5953 5953 5954 5954 5955 5956 5957 5957 5958 5958 5958 5958 5958 5958 5958 5958 5958 5958 5958 5959 5959 5960 5961 5962 5962 5963 5964 5964 5964 5964 5963 5963 5963 5963 5963 5963 5962 5962 5962 5961 5961 5961 5961 5961 5962 5962 5962 5962 5962 5962 5962 5962 5961
5910 5912 5913 5915 5916 5918 5920 5922 5922 5922 5924 5926 5928 5929 5930 5931 5932 5933 5934 5935 5937 5938 5940 5941 5942 5942 5943 5945 5946 5947 5947 5948 5949 5950 5951 5951 5952 5953 5954 5955 5955 5956 5956 5956 5957 5957 5957 5956 5956 5956 5956 5957 5957 5957 5957 5958 5958 5959 5960 5961 5961 5961 5961 5961 5961 5961 5962 5962 5962 5961 5961 5961 5960 5960 5960 5960 5960 5960 5959 5959 5959 5959 5959 5959 5959
5907 5909 5911 5912 5913 5914 5916 5918 5919 5919 5921 5923 5924 5926 5927 5927 5928 5930 5931 5932 5934 5935 5937 5939 5940 5940 5941 5942 5943 5943 5944 5944 5945 5946 5947 5948 5948 5949 5950 5952 5953 5953 5953 5954 5954 5954 5955 5955 5955 5954 5954 5955 5955 5955 5955 5956 5956 5956 5957 5957 5958 5958 5958 5959 5959 5959 5960 5960 5960 5960 5960 5960 5960 5959 5959 5959 5958 5957 5957 5957 5957 5957 5956 5956 5956
5905 5907 5908 5909 5910 5911 5913 5914 5915 5917 5919 5920 5921 5923 5924 5924 5926 5928 5929 5930 5931 5932 5934 5936 5937 5938 5939 5939 5940 5940 5940 5941 5942 5943 5944 5945 5945 5946 5947 5948 5950 5950 5951 5951 5952 5952 5952 5952 5952 5952 5952 5952 5952 5953 5953 5953 5954 5954 5955 5955 5955 5955 5956 5956 5956 5956 5956 5957 5958 5958 5957 5957 5958 5957 5957 5957 5957 5956 5955 5955 5955 5955 5954 5954 5954
5903 5904 5905 5906 5907 5908 5910 5911 5912 5914 5915 5917 5918 5920 5921 5922 5923 5925 5926 5927 5928 5930 5931 5932 5934 5936 5937 5938 5938 5938 5938 5938 5939 5940 5941 5942 5942 5943 5944 5944 5946 5947 5947 5948 5949 5949 5950 5950 5950 5950 5950 5950 5950 5950 5950 5950 5951 5952 5952 5953 5953 5953 5953 5954 5953 5953 5953 5953 5954 5954 5954 5954 5955 5955 5954 5955 5955 5954 5954 5954 5954 5953 5953 5952 5952
5899 5901 5902 5903 5904 5906 5907 5908 5910 5911 5912 5914 5915 5917 5919 5919 5920 5921 5922 5924 5925 5926 5928 5929 5930 5931 5933 5935 5936 5935 5935 5935 5935 5936 5937 5938 5939 5940 5940 5941 5942 5943 5944 5944 5945 5946 5947 5947 5948 5948 5948 5948 5947 5947 5947 5947 5948 5949 5949 5949 5949 5950 5951 5951 5950 5950 5950 5950 5950 5950 5950 5950 5950 5951 5951 5951 5952 5952 5952 5953 5952 5951 5951 5951 5951
5896 5899 5900 5901 5902 5904 5905 5906 5907 5909 5910 5911 5912 5914 5916 5916 5917 5918 5919 5920 5921 5923 5924 5925 5926 5927 5929 5931 5932 5932 5932 5932 5932 5932 5934 5935 5936 5936 5937 5938 5939 5940 5941 5941 5942 5942 5943 5944 5944 5945 5945 5945 5945 5944 5944 5944 5945 5945 5945 5946 5946 5947 5948 5948 5946 5946 5946 5946 5946 5946 5946 5946 5946 5947 5947 5947 5947 5948 5949 5950 5948 5947 5948 5949 5949
5893 5895 5897 5899 5900 5901 5903 5904 5905 5906 5907 5909 5910 5911 5912 5913 5914 5915 5916 5917 5918 5919 5920 5921 5922 5923 5924 5926 5928 5929 5929 5929 5929 5930 5931 5933 5934 5935 5935 5936 5937 5938 5939 5939 5940 5940 5940 5941 5941 5942 5942 5942 5941 5941 5941 5941 5942 5943 5942 5942 5943 5945 5946 5944 5942 5942 5942 5942 5943 5943 5944 5944 5943 5943 5943 5943 5944 5944 5945 5946 5944 5943 5944 5945 5945
5889 5891 5893 5894 5896 5897 5899 5901 5903 5904 5905 5906 5907 5908 5909 5910 5911 5911 5912 5914 5915 5916 5917 5917 5918 5919 5920 5921 5923 5925 5926 5927 5928 5929 5929 5931 5932 5933 5934 5934 5935 5936 5936 5937 5937 5938 5939 5939 5939 5939 5939 5939 5938 5937 5936 5936 5938 5939 5939 5939 5941 5942 5941 5939 5939 5939 5940 5940 5941 5942 5942 5942 5942 5942 5941 5941 5940 5941 5941 5942 5940 5939 5939 5940 5940
5885 5887 5889 5890 5892 5894 5895 5897 5900 5901 5902 5903 5904 5905 5905 5906 5907 5908 5909 5910 5911 5912 5913 5913 5914 5914 5915 5917 5918 5921 5922 5923 5925 5926 5926 5927 5928 5929 5929 5930 5931 5931 5931 5932 5933 5934 5935 5936 5936 5936 5936 5935 5935 5934 5933 5933 5934 5934 5935 5936 5938 5938 5937 5935 5936 5937 5937 5938 5938 5939 5940 5940 5940 5940 5939 5938 5937 5937 5937 5937 5937 5936 5935 5936 5936
5881 5882 5884 5886 5888 5890 5892 5894 5895 5897 5899 5900 5901 5902 5902 5903 5904 5905 5906 5906 5907 5908 5909 5910 5910 5911 5912 5913 5914 5916 5918 5919 5919 5920 5921 5922 5924 5925 5926 5926 5926 5927 5928 5929 5930 5931 5931 5932 5932 5932 5932 5932 5931 5931 5931 5931 5931 5931 5932 5933 5933 5933 5932 5933 5934 5934 5934 5935 5935 5935 5936 5936 5936 5936 5936 5935 5934 5933 5932 5932 5933 5932 5932 5932 5932
5877 5878 5879 5881 5883 5885 5888 5889 5891 5893 5895 5896 5897 5898 5899 5900 5900 5901 5902 5903 5904 5905 5905 5906 5907 5907 5908 5909 5910 5912 5913 5915 5915 5915 5916 5919 5920 5921 5922 5922 5922 5922 5924 5925 5926 5927 5927 5928 5928 5927 5927 5928 5928 5928 5928 5928 5928 5929 5929 5929 5928 5928 5928 5929 5930 5930 5930 5930 5931 5931 5932 5931 5931 5931 5931 5930 5930 5928 5928 5928 5928 5928 5928 5928 5928
5871 5873 5875 5876 5878 5879 5881 5883 5885 5888 5890 5892 5893 5894 5895 5896 5897 5897 5897 5898 5899 5900 5901 5902 5903 5904 5905 5905 5906 5908 5909 5911 5911 5912 5913 5915 5915 5916 5917 5917 5917 5918 5919 5920 5921 5921 5922 5923 5923 5923 5924 5924 5924 5924 5924 5924 5925 5925 5925 5925 5924 5923 5923 5924 5924 5924 5925 5926 5926 5927 5927 5927 5927 5927 5926 5925 5924 5923 5922 5923 5923 5923 5923 5923 5923
5866 5868 5870 5871 5873 5874 5875 5877 5879 5881 5883 5886 5887 5889 5890 5891 5892 5893 5893 5893 5894 5895 5896 5897 5899 5900 5901 5901 5902 5904 5906 5907 5908 5909 5909 5910 5910 5911 5911 5912 5913 5914 5916 5917 5917 5917 5917 5918 5918 5919 5920 5921 5921 5921 5921 5921 5921 5921 5921 5921 5920 5919 5918 5918 5918 5918 5919 5921 5921 5922 5922 5922 5921 5922 5921 5920 5919 5919 5918 5918 5917 5916 5916 5917 5918
5861 5863 5865 5866 5867 5869 5870 5872 5873 5874 5876 5878 5880 5882 5884 5885 5887 5888 5889 5889 5890 5891 5892 5893 5894 5895 5896 5897 5898 5900 5901 5903 5904 5904 5905 5906 5906 5906 5906 5906 5908 5910 5911 5913 5913 5913 5913 5914 5914 5915 5916 5917 5918 5918 5918 5917 5916 5916 5916 5916 5916 5915 5914 5913 5913 5913 5914 5915 5915 5916 5917 5916 5915 5916 5916 5915 5916 5915 5914 5913 5912 5911 5911 5911 5913
5856 5857 5859 5861 5862 5863 5865 5867 5868 5868 5869 5871 5872 5874 5876 5878 5880 5881 5883 5884 5885 5886 5887 5888 5889 5891 5892 5893 5894 5895 5896 5898 5899 5900 5900 5901 5902 5901 5901 5901 5902 5904 5906 5907 5908 5909 5909 5910 5910 5910 5911 5911 5912 5912 5912 5911 5910 5910 5910 5910 5910 5910 5909 5909 5909 5909 5910 5910 5910 5910 5911 5911 5911 5911 5911 5911 5911 5911 5910 5908 5908 5908 5907 5907 5908
5849 5851 5853 5855 5856 5856 5858 5860 5862 5863 5863 5864 5865 5867 5870 5871 5873 5874 5876 5877 5878 5880 5881 5882 5883 5885 5886 5887 5888 5889 5890 5892 5894 5895 5895 5896 5897 5897 5897 5897 5898 5898 5900 5902 5903 5904 5905 5905 5905 5905 5905 5906 5906 5907 5907 5906 5906 5905 5905 5905 5905 5905 5904 5904 5904 5904 5905 5905 5905 5906 5906 5906 5906 5907 5907 5907 5907 5907 5905 5904 5904 5905 5904 5903 5905
5842 5844 5847 5848 5850 5851 5852 5853 5854 5856 5857 5858 5859 5861 5863 5865 5866 5867 5868 5869 5871 5872 5873 5874 5875 5877 5879 5880 5882 5883 5884 5886 5888 5889 5890 5891 5891 5892 5892 5893 5893 5893 5894 5896 5898 5899 5899 5900 5900 5900 5901 5902 5902 5902 5902 5902 5901 5901 5900 5900 5900 5900 5899 5899 5899 5900 5900 5900 5901 5901 5902 5901 5902 5902 5902 5902 5903 5902 5900 5900 5901 5902 5902 5901 5903
5835 5837 5840 5842 5844 5845 5846 5846 5847 5849 5851 5853 5854 5855 5856 5857 5859 5860 5861 5862 5863 5865 5866 5866 5867 5869 5871 5872 5874 5875 5877 5879 5881 5882 5883 5884 5885 5886 5886 5888 5888 5888 5889 5891 5893 5894 5894 5894 5894 5895 5896 5897 5897 5897 5897 5897 5897 5897 5896 5895 5895 5895 5895 5895 5895 5895 5895 5895 5897 5898 5897 5897 5897 5897 5896 5897 5897 5897 5896 5896 5898 5899 5899 5898 5899
5828 5830 5833 5835 5837 5839 5840 5840 5840 5841 5844 5846 5847 5848 5848 5850 5852 5853 5854 5855 5857 5858 5859 5860 5860 5861 5863 5865 5866 5868 5869 5871 5873 5875 5876 5877 5878 5879 5880 5882 5883 5884 5884 5885 5887 5888 5889 5890 5890 5890 5891 5892 5892 5892 5892 5892 5892 5892 5892 5891 5891 5891 5891 5891 5891 5890 5890 5891 5892 5893 5893 5893 5892 5891 5891 5891 5892 5891 5892 5893 5894 5894 5894 5895 5895
5821 5823 5825 5827 5829 5831 5833 5834 5834 5834 5836 5838 5839 5840 5842 5843 5845 5846 5847 5848 5850 5851 5852 5853 5854 5855 5856 5857 5859 5860 5862 5863 5864 5866 5868 5870 5871 5873 5874 5875 5877 5878 5879 5879 5881 5882 5884 5885 5886 5886 5886 5887 5888 5888 5887 5887 5887 5887 5887 5887 5887 5886 5886 5886 5886 5886 5886 5886 5887 5888 5888 5887 5887 5887 5886 5886 5887 5887 5887 5888 5889 5889 5890 5890 5891
5813 5815 5817 5820 5822 5824 5826 5827 5828 5827 5827 5828 5831 5833 5835 5837 5838 5839 5840 5841 5842 5843 5845 5846 5847 5848 5849 5850 5852 5853 5854 5855 5857 5858 5860 5862 5864 5865 5866 5868 5869 5871 5873 5873 5874 5875 5876 5878 5880 5880 5881 5882 5882 5882 5881 5881 5882 5882 5882 5882 5882 5881 5881 5881 5881 5881 5881 5881 5881 5882 5882 5882 5882 5882 5882 5882 5883 5883 5883 5884 5884 5884 5884 5885 5886
5806 5808 5810 5813 5815 5816 5818 5820 5821 5820 5820 5820 5822 5825 5827 5829 5830 5832 5833 5834 5835 5836 5837 5839 5840 5841 5842 5843 5844 5846 5846 5848 5849 5850 5852 5854 5856 5857 5858 5860 5861 5863 5864 5866 5867 5868 5869 5871 5872 5873 5873 5874 5875 5875 5875 5876 5876 5877 5877 5877 5877 5877 5877 5877 5876 5876 5876 5876 5876 5876 5877 5877 5877 5878 5878 5878 5878 5878 5878 5878 5878 5878 5878 5879 5880
5800 5802 5804 5806 5807 5808 5810 5812 5813 5813 5813 5814 5815 5817 5819 5821 5823 5824 5825 5827 5828 5829 5829 5830 5832 5834 5835 5836 5837 5838 5839 5840 5841 5843 5844 5846 5847 5849 5850 5850 5852 5854 5856 5857 5859 5861 5862 5864 5865 5865 5866 5866 5867 5868 5868 5869 5870 5870 5871 5871 5871 5872 5872 5872 5872 5872 5872 5871 5870 5870 5871 5871 5872 5873 5873 5872 5872 5872 5872 5872 5872 5872 5873 5874 5875
5793 5795 5797 5798 5799 5800 5802 5803 5805 5806 5807 5808 5808 5810 5811 5813 5815 5816 5817 5818 5819 5821 5822 5823 5824 5825 5827 5828 5829 5830 5832 5832 5833 5835 5836 5837 5838 5839 5841 5841 5843 5844 5846 5848 5850 5853 5854 5856 5857 5858 5858 5859 5859 5860 5861 5862 5862 5863 5863 5864 5865 5865 5865 5865 5866 5866 5866 5866 5865 5865 5865 5866 5866 5866 5866 5866 5866 5866 5867 5867 5867 5867 5868 5868 5869
5786 5788 5789 5790 5791 5792 5793 5795 5796 5798 5800 5801 5802 5803 5804 5805 5807 5808 5810 5810 5811 5812 5813 5814 5816 5817 5818 5820 5821 5823 5823 5824 5826 5826 5827 5827 5828 5830 5831 5833 5834 5835 5837 5838 5841 5843 5845 5846 5848 5849 5850 5851 5851 5852 5853 5854 5855 5855 5856 5857 5858 5858 5859 5859 5860 5860 5860 5860 5860 5860 5860 5860 5861 5860 5860 5860 5861 5861 5861 5861 5861 5861 5861 5862 5862
5779 5780 5780 5781 5782 5783 5785 5786 5788 5790 5791 5793 5795 5796 5797 5798 5799 5800 5801 5803 5804 5805 5805 5805 5806 5808 5809 5811 5813 5814 5815 5816 5817 5819 5819 5819 5819 5820 5821 5824 5826 5827 5828 5829 5830 5833 5835 5836 5838 5839 5841 5842 5843 5843 5844 5845 5846 5847 5848 5848 5849 5850 5851 5853 5853 5853 5854 5854 5854 5854 5853 5854 5855 5855 5854 5854 5855 5856 5856 5855 5854 5855 5855 5856 5856
5770 5771 5772 5772 5774 5775 5776 5778 5779 5781 5783 5785 5786 5787 5788 5789 5790 5792 5793 5794 5795 5797 5797 5798 5798 5798 5799 5801 5803 5805 5807 5808 5809 5810 5811 5811 5811 5811 5812 5813 5816 5818 5819 5820 5821 5822 5824 5826 5827 5829 5831 5832 5833 5834 5836 5836 5837 5838 5839 5840 5841 5842 5843 5844 5845 5846 5847 5848 5848 5847 5847 5847 5848 5848 5847 5848 5849 5849 5849 5848 5848 5849 5849 5849 5849
5762 5763 5764 5765 5766 5767 5769 5770 5771 5772 5774 5776 5777 5778 5779 5780 5782 5783 5784 5785 5786 5787 5788 5789 5790 5790 5790 5791 5792 5794 5797 5799 5800 5801 5802 5802 5802 5802 5802 5803 5805 5807 5809 5810 5812 5813 5814 5815 5817 5819 5821 5822 5824 5825 5826 5827 5828 5829 5830 5831 5832 5833 5834 5835 5836 5837 5839 5840 5841 5841 5840 5840 5840 5840 5840 5841 5842 5842 5842 5842 5842 5842 5843 5843 5843
5754 5755 5757 5758 5759 5760 5761 5762 5763 5764 5765 5766 5767 5769 5770 5771 5772 5774 5774 5775 5776 5777 5778 5780 5780 5781 5781 5782 5782 5784 5785 5787 5789 5791 5792 5793 5793 5793 5793 5793 5794 5796 5798 5801 5803 5804 5804 5805 5807 5809 5810 5812 5814 5815 5816 5817 5818 5820 5821 5822 5823 5824 5825 5826 5827 5828 5830 5831 5832 5832 5832 5832 5833 5833 5833 5834 5835 5835 5834 5835 5836 5835 5836 5837 5837
5747 5748 5749 5750 5751 5752 5753 5754 5755 5755 5756 5757 5758 5759 5760 5761 5763 5764 5765 5766 5767 5768 5769 5770 5770 5771 5772 5772 5773 5774 5775 5776 5778 5779 5781 5783 5783 5784 5783 5783 5783 5785 5788 5790 5793 5794 5795 5796 5798 5799 5800 5802 5803 5805 5806 5807 5809 5810 5811 5812 5813 5814 5816 5817 5818 5819 5821 5822 5822 5823 5824 5824 5825 5825 5826 5826 5827 5827 5827 5828 5828 5828 5829 5829 5830
5740 5741 5742 5742 5743 5743 5744 5745 5746 5747 5748 5748 5749 5750 5751 5752 5753 5754 5755 5757 5757 5758 5759 5760 5761 5761 5762 5762 5763 5764 5765 5766 5766 5768 5769 5771 5772 5773 5773 5773 5773 5774 5777 5779 5781 5784 5785 5787 5788 5789 5790 5792 5793 5794 5796 5797 5798 5800 5801 5802 5803 5804 5806 5807 5808 5810 5811 5812 5813 5813 5814 5815 5816 5817 5817 5818 5819 5819 5820 5820 5821 5821 5821 5822 5822
5733 5734 5735 5735 5735 5735 5735 5736 5737 5738 5738 5739 5740 5741 5742 5742 5743 5744 5745 5746 5748 5748 5749 5750 5751 5752 5752 5752 5753 5753 5754 5755 5755 5757 5758 5759 5760 5761 5762 5762 5763 5763 5765 5767 5770 5772 5775 5777 5778 5779 5780 5781 5782 5784 5785 5787 5788 5789 5791 5792 5793 5794 5795 5797 5798 5800 5802 5802 5803 5804 5804 5805 5806 5807 5808 5809 5810 5810 5811 5812 5813 5813 5813 5814 5814
5726 5726 5727 5727 5728 5728 5728 5728 5729 5729 5729 5730 5730 5731 5731 5732 5733 5734 5735 5736 5737 5738 5739 5740 5741 5741 5742 5742 5743 5743 5744 5744 5744 5745 5747 5748 5749 5749 5750 5751 5752 5752 5753 5754 5757 5760 5763 5765 5767 5768 5769 5770 5772 5773 5775 5776 5777 5778 5780 5781 5782 5784 5785 5786 5788 5789 5791 5792 5793 5794 5795 5796 5796 5797 5798 5799 5800 5800 5802 5803 5804 5804 5805 5805 5805
5717 5717 5718 5719 5719 5720 5720 5720 5720 5721 5721 5721 5721 5721 5721 5722 5722 5723 5723 5724 5725 5726 5727 5729 5729 5730 5731 5731 5732 5732 5733 5733 5734 5734 5735 5736 5737 5738 5738 5739 5739 5740 5741 5742 5744 5746 5749 5752 5754 5757 5758 5759 5761 5763 5764 5765 5766 5766 5768 5770 5771 5773 5774 5776 5777 5779 5780 5781 5783 5785 5785 5786 5786 5787 5788 5789 5790 5790 5792 5794 5794 5795 5796 5796 5796
5709 5709 5710 5710 5710 5711 5711 5711 5712 5712 5712 5712 5712 5712 5712 5711 5711 5712 5712 5713 5714 5715 5716 5717 5717 5718 5719 5720 5720 5721 5721 5722 5722 5723 5723 5724 5724 5725 5726 5726 5727 5728 5730 5731 5732 5734 5736 5738 5740 5743 5746 5747 5749 5751 5752 5753 5754 5755 5757 5758 5760 5762 5763 5765 5766 5768 5769 5770 5772 5774 5775 5776 5776 5776 5777 5779 5779 5780 5782 5783 5784 5785 5786 5787 5787
5701 5701 5701 5701 5701 5701 5702 5702 5702 5702 5702 5702 5702 5702 5702 5701 5701 5701 5701 5702 5703 5703 5704 5705 5705 5705 5706 5707 5708 5709 5709 5710 5710 5711 5711 5711 5712 5713 5713 5714 5715 5717 5717 5719 5720 5721 5722 5724 5726 5729 5733 5735 5736 5738 5739 5740 5741 5743 5745 5747 5748 5750 5752 5754 5755 5757 5757 5759 5761 5763 5764 5765 5766 5766 5766 5767 5769 5770 5771 5772 5774 5775 5776 5777 5778
5694 5693 5693 5693 5693 5693 5693 5693 5693 5693 5693 5693 5693 5692 5692 5692 5691 5691 5691 5691 5691 5691 5692 5692 5693 5693 5694 5694 5695 5695 5696 5697 5697 5698 5698 5699 5699 5700 5701 5702 5703 5704 5705 5706 5707 5708 5709 5710 5712 5716 5719 5721 5722 5724 5725 5726 5728 5730 5732 5734 5736 5738 5740 5742 5744 5745 5746 5748 5749 5751 5752 5754 5755 5756 5756 5756 5757 5759 5760 5762 5763 5764 5765 5766 5768
5686 5686 5686 5685 5685 5685 5685 5684 5684 5684 5684 5683 5683 5683 5683 5682 5681 5681 5681 5680 5680 5680 5680 5680 5681 5681 5681 5681 5682 5682 5683 5683 5684 5685 5685 5686 5686 5687 5688 5688 5689 5690 5692 5693 5693 5694 5695 5697 5699 5702 5705 5706 5707 5709 5711 5713 5715 5717 5719 5721 5723 5725 5727 5729 5732 5733 5735 5736 5738 5739 5740 5742 5744 5744 5745 5745 5745 5747 5749 5750 5752 5753 5754 5755 5757
5678 5678 5678 5678 5677 5677 5677 5676 5676 5675 5675 5674 5674 5673 5673 5672 5672 5671 5671 5670 5670 5670 5670 5670 5669 5669 5669 5669 5669 5669 5670 5670 5671 5671 5671 5672 5673 5673 5674 5674 5675 5677 5678 5679 5680 5680 5681 5683 5686 5688 5690 5691 5692 5695 5697 5700 5702 5704 5706 5707 5709 5712 5714 5716 5719 5720 5722 5724 5726 5727 5728 5730 5731 5732 5733 5734 5734 5735 5737 5738 5740 5742 5743 5744 5745
5671 5671 5670 5670 5670 5669 5669 5668 5668 5667 5666 5665 5665 5664 5663 5663 5662 5661 5661 5660 5660 5659 5659 5659 5659 5659 5658 5658 5658 5657 5657 5658 5658 5658 5658 5659 5659 5660 5660 5661 5661 5662 5664 5665 5666 5667 5668 5670 5672 5674 5675 5676 5678 5680 5683 5686 5688 5690 5692 5694 5696 5697 5700 5702 5705 5707 5708 5710 5713 5715 5716 5717 5718 5720 5721 5722 5723 5724 5724 5726 5727 5729 5731 5733 5734